EW0724 Weather Reports


time (UTC)temp
C
wind
direction
speed
KPH
gust
KPH
rain 1hr
cm
rain 24hr
cm
rain mn
cm
humidity
%
barometer
mb
20260906090020 20 360 0.0 3.2 0.00 0.00 0.00 100 1013.8
20260906084516 20 360 0.0 3.2 0.00 0.00 0.00 100 1013.8
20260906083101 20 355 0.0 4.8 0.00 0.00 0.00 100 1013.7
20260906081557 20 343 1.6 6.4 0.00 0.00 0.00 100 1013.7
20260906080058 21 19 1.6 6.4 0.00 0.00 0.00 100 1013.6
20260906074552 21 348 1.6 4.8 0.00 0.00 0.00 100 1013.6
20260906073043 21 343 0.0 4.8 0.00 0.00 0.00 100 1013.8
20260906071539 21 45 1.6 4.8 0.00 0.00 0.00 100 1013.6
20260906070036 21 5 0.0 3.2 0.00 0.00 0.00 100 1013.6
20260906064534 21 5 0.0 4.8 0.00 0.00 0.00 100 1013.5
20260906063009 21 65 1.6 6.4 0.00 0.00 0.00 100 1013.5
20260906061504 21 50 1.6 6.4 0.00 0.00 0.00 100 1013.6
20260906060105 21 349 0.0 8.0 0.00 0.00 0.00 100 1013.7
20260906054539 21 16 0.0 4.8 0.00 0.00 0.00 100 1013.4
20260906053035 22 360 0.0 6.4 0.00 0.00 0.00 100 1013.5
20260906051517 22 350 0.0 6.4 0.00 0.00 0.00 100 1013.3
20260906050013 22 44 0.0 3.2 0.00 0.00 0.00 100 1013.2
20260906044508 22 44 0.0 6.4 0.00 0.00 0.00 100 1013.0
20260906043004 22 61 1.6 4.8 0.00 0.00 0.00 100 1012.9
20260906041600 22 52 3.2 6.4 0.00 0.00 0.00 100 1012.7
20260906040056 22 51 1.6 11.3 0.00 0.00 0.00 100 1012.7
20260906034552 23 343 1.6 8.0 0.00 0.00 0.00 100 1012.8
20260906033047 23 17 3.2 8.0 0.00 0.00 0.00 100 1012.8
20260906031530 23 62 1.6 11.3 0.00 0.00 0.00 100 1012.6
20260906030026 23 355 1.6 8.0 0.00 0.00 0.00 100 1012.6
20260906024519 24 15 1.6 9.7 0.00 0.00 0.00 100 1012.4
20260906023016 24 355 3.2 12.9 0.00 0.00 0.00 2 1012.2
20260906021516 25 59 3.2 9.7 0.00 0.00 0.00 8 1011.9
20260906020007 25 33 4.8 9.7 0.00 0.00 0.00 10 1011.8
20260906014505 26 43 1.6 12.9 0.00 0.00 0.00 14 1011.7
20260906013058 26 342 3.2 9.7 0.00 0.00 0.00 17 1011.4
20260906011544 26 55 1.6 6.4 0.00 0.00 0.00 16 1011.2
20260906010037 26 360 1.6 8.0 0.00 0.00 0.00 22 1011.0
20260906004533 27 39 0.0 6.4 0.00 0.00 0.00 31 1010.9
20260906003028 27 298 1.6 11.3 0.00 0.00 0.00 39 1010.5
20260906001523 27 26 1.6 9.7 0.00 0.00 0.00 45 1010.4
20260906000020 28 35 4.8 11.3 0.00 0.00 0.00 53 1010.4
20260905234515 28 53 1.6 8.0 0.00 0.00 0.00 58 1010.3
20260905233010 29 342 1.6 9.7 0.00 0.00 0.00 60 1010.0
20260905231557 30 304 1.6 8.0 0.00 0.00 0.00 62 1009.9
20260905230050 30 88 3.2 14.5 0.00 0.00 0.00 62 1009.9
20260905224605 30 257 3.2 9.7 0.00 0.00 0.00 62 1009.7
20260905223042 31 156 0.0 8.0 0.00 0.00 0.00 62 1009.8
20260905221540 31 22 3.2 11.3 0.00 0.00 0.00 62 1009.5
20260905220033 31 312 1.6 11.3 0.00 0.00 0.00 62 1009.3
20260905214528 31 295 1.6 11.3 0.00 0.00 0.00 62 1009.3
20260905213033 31 251 1.6 8.0 0.00 0.00 0.00 61 1008.9
20260905211502 31 347 1.6 11.3 0.00 0.00 0.00 59 1009.0
20260905210059 31 332 3.2 8.0 0.00 0.00 0.00 58 1009.2
20260905204543 31 17 3.2 9.7 0.00 0.00 0.00 55 1009.2
20260905203040 31 21 3.2 9.7 0.00 0.00 0.00 54 1009.3
20260905201534 31 53 3.2 8.0 0.00 0.00 0.00 57 1009.5
20260905200032 31 56 3.2 8.0 0.00 0.00 0.00 58 1009.5
20260905194525 32 346 3.2 11.3 0.00 0.00 0.00 60 1009.5
20260905193021 32 243 1.6 9.7 0.00 0.00 0.00 61 1009.6
20260905191516 32 292 3.2 9.7 0.00 0.00 0.00 61 1009.6
20260905190013 32 292 0.0 3.2 0.00 0.00 0.00 60 1009.9
20260905184606 32 181 3.2 9.7 0.00 0.00 0.00 62 1010.1
20260905183047 32 227 0.0 11.3 0.00 0.00 0.00 61 1010.1
20260905181529 31 179 3.2 11.3 0.00 0.00 0.00 62 1010.2
20260905180025 31 227 6.4 12.9 0.00 0.00 0.00 62 1010.4
20260905174531 31 219 3.2 9.7 0.00 0.00 0.00 62 1010.5
20260905173026 31 224 8.0 16.1 0.00 0.00 0.00 62 1010.7
20260905171512 30 232 3.2 11.3 0.00 0.00 0.00 61 1010.9
20260905170008 30 162 4.8 17.7 0.00 0.00 0.00 61 1011.2
20260905164503 30 215 4.8 14.5 0.00 0.00 0.00 61 1011.2
20260905163102 30 148 6.4 17.7 0.00 0.00 0.00 61 1011.2
20260905161542 29 163 3.2 12.9 0.00 0.00 0.00 61 1011.3
20260905160038 29 164 1.6 8.0 0.00 0.00 0.00 60 1011.4
20260905154533 28 144 1.6 8.0 0.00 0.00 0.00 57 1011.4
20260905153029 27 188 1.6 6.4 0.00 0.00 0.00 56 1011.4
20260905151524 27 165 1.6 9.7 0.00 0.00 0.00 56 1011.4
20260905150020 27 173 1.6 12.9 0.00 0.00 0.00 50 1011.4
20260905144516 26 196 3.2 9.7 0.00 0.00 0.00 48 1011.7
20260905143011 26 165 1.6 12.9 0.00 0.00 0.00 46 1011.7
20260905141618 26 167 1.6 8.0 0.00 0.00 0.00 43 1011.4
20260905140053 25 193 0.0 9.7 0.00 0.00 0.00 37 1011.2
20260905134546 25 219 3.2 9.7 0.00 0.00 0.00 31 1011.2
20260905133042 24 74 1.6 8.0 0.00 0.00 0.00 19 1011.1
20260905131553 24 184 3.2 11.3 0.00 0.00 0.00 14 1011.1
20260905130036 23 206 1.6 6.4 0.00 0.00 0.00 16 1011.1
20260905124539 23 115 1.6 6.4 0.00 0.00 0.00 11 1011.3
20260905123025 23 193 0.0 6.4 0.00 0.00 0.00 4 1011.3
20260905121529 22 55 1.6 6.4 0.00 0.00 0.00 2 1011.2
20260905120100 -17 0.0 0.0 0.00 0.00 0.00 1011.2
20260905114555 -17 0.0 0.0 0.00 0.00 0.00 1011.3
20260905113041 -17 0.0 0.0 0.00 0.00 0.00 1011.2
20260905111546 -17 0.0 0.0 0.00 0.00 0.00 1011.0
20260905110030 -17 0.0 0.0 0.00 0.00 0.00 1010.9
20260905104526 -17 0.0 0.0 0.00 0.00 0.00 1010.6
20260905103030 -17 0.0 0.0 0.00 0.00 0.00 1010.5
20260905101526 -17 0.0 0.0 0.00 0.00 0.00 1010.5
20260905100014 -17 0.0 0.0 0.00 0.00 0.00 1010.5
20260905094509 -17 0.0 0.0 0.00 0.00 0.00 1010.3
20260905093047 25 198 0.0 3.2 0.00 0.00 0.00 100 1010.2
20260905091546 25 198 0.0 1.6 0.00 0.00 0.00 100 1010.1